When you browse on this site, cookies collect data to enhance your experience and personalize the content and advertising you see.
Visit our Privacy Policy to learn more. By continuing to use the site, you agree to this use of cookies and data.
  • In Czech Republic
  • List of Countries
  • For 7 days
  • Water Temperature
  • Satellite Maps
  • Weather Map
  • Weather Widgets
  • user-avatar
    Login

    Hourly Weather Bielce

    Today, 18 June, Tuesday

    Time Temperature Precipitation Wind Pressure Humidity
    00:00 +23°C° 0.3 mm 2 mps 752 mmHg 87%
    01:00 +23°C° 0.3 mm 2 mps 752 mmHg 89%
    02:00 +21°C° 0.3 mm 2 mps 752 mmHg 92%
    03:00 +21°C° 0 mm 2 mps 752 mmHg 93%
    04:00 +21°C° 0 mm 3 mps 752 mmHg 94%
    05:00 +21°C° 0 mm 3 mps 752 mmHg 95%
    06:00 +22°C° 0 mm 3 mps 752 mmHg 91%
    07:00 +24°C° 0 mm 3 mps 753 mmHg 88%
    08:00 +25°C° 0 mm 4 mps 753 mmHg 84%
    09:00 +26°C° 0 mm 4 mps 753 mmHg 79%
    10:00 +27°C° 0 mm 4 mps 753 mmHg 74%
    11:00 +28°C° 0 mm 4 mps 753 mmHg 69%
    12:00 +28°C° 0.1 mm 4 mps 753 mmHg 67%
    13:00 +29°C° 0.1 mm 4 mps 752 mmHg 66%
    14:00 +29°C° 0.1 mm 4 mps 752 mmHg 64%
    15:00 +29°C° 0.1 mm 4 mps 752 mmHg 64%
    16:00 +29°C° 0.1 mm 4 mps 752 mmHg 65%
    17:00 +29°C° 0.1 mm 4 mps 751 mmHg 65%
    18:00 +27°C° 0 mm 4 mps 752 mmHg 70%
    19:00 +26°C° 0 mm 3 mps 752 mmHg 75%
    20:00 +25°C° 0 mm 3 mps 752 mmHg 80%
    21:00 +24°C° 0 mm 2 mps 752 mmHg 82%
    22:00 +23°C° 0 mm 2 mps 752 mmHg 83%
    23:00 +23°C° 0 mm 2 mps 752 mmHg 85%

    Tomorrow, 19 June, Wednesday

    Time Temperature Precipitation Wind Pressure Humidity
    00:00 +21°C° 0 mm 2 mps 752 mmHg 87%
    01:00 +21°C° 0 mm 2 mps 752 mmHg 90%
    02:00 +20°C° 0 mm 2 mps 752 mmHg 92%
    03:00 +20°C° 0 mm 2 mps 752 mmHg 92%
    04:00 +20°C° 0 mm 2 mps 752 mmHg 92%
    05:00 +20°C° 0 mm 2 mps 752 mmHg 92%
    06:00 +21°C° 0 mm 2 mps 752 mmHg 86%
    07:00 +24°C° 0 mm 2 mps 752 mmHg 80%
    08:00 +25°C° 0 mm 2 mps 752 mmHg 74%
    09:00 +26°C° 0 mm 2 mps 752 mmHg 70%
    10:00 +27°C° 0 mm 2 mps 752 mmHg 66%
    11:00 +28°C° 0 mm 2 mps 751 mmHg 62%
    12:00 +29°C° 0 mm 2 mps 751 mmHg 60%
    13:00 +29°C° 0 mm 2 mps 751 mmHg 58%
    14:00 +29°C° 0 mm 3 mps 751 mmHg 56%
    15:00 +29°C° 0 mm 2 mps 750 mmHg 56%
    16:00 +29°C° 0 mm 2 mps 750 mmHg 56%
    17:00 +29°C° 0 mm 2 mps 750 mmHg 56%
    18:00 +28°C° 0 mm 2 mps 750 mmHg 63%
    19:00 +26°C° 0 mm 2 mps 750 mmHg 69%
    20:00 +25°C° 0 mm 2 mps 750 mmHg 76%
    21:00 +24°C° 0 mm 2 mps 750 mmHg 78%
    22:00 +23°C° 0 mm 2 mps 750 mmHg 80%
    23:00 +23°C° 0 mm 2 mps 750 mmHg 82%

    Day after tomorrow, 20 June, Thursday

    Time Temperature Precipitation Wind Pressure Humidity
    00:00 +21°C° 0 mm 2 mps 750 mmHg 84%
    01:00 +21°C° 0 mm 2 mps 750 mmHg 86%
    02:00 +20°C° 0 mm 2 mps 750 mmHg 88%
    03:00 +21°C° 0 mm 1 mps 750 mmHg 88%
    04:00 +21°C° 0 mm 1 mps 750 mmHg 89%
    05:00 +21°C° 0 mm 1 mps 750 mmHg 89%
    06:00 +23°C° 0 mm 1 mps 750 mmHg 83%
    07:00 +24°C° 0 mm 1 mps 750 mmHg 77%
    08:00 +26°C° 0 mm 2 mps 750 mmHg 71%
    09:00 +27°C° 0 mm 2 mps 750 mmHg 65%
    10:00 +28°C° 0 mm 2 mps 750 mmHg 60%
    11:00 +29°C° 0 mm 2 mps 750 mmHg 54%
    12:00 +30°C° 0 mm 2 mps 749 mmHg 52%
    13:00 +31°C° 0 mm 2 mps 749 mmHg 49%
    14:00 +31°C° 0 mm 2 mps 749 mmHg 46%
    15:00 +31°C° 0 mm 2 mps 749 mmHg 47%
    16:00 +31°C° 0 mm 2 mps 749 mmHg 47%
    17:00 +31°C° 0 mm 2 mps 749 mmHg 48%
    18:00 +29°C° 0 mm 2 mps 749 mmHg 53%
    19:00 +28°C° 0 mm 2 mps 749 mmHg 59%
    20:00 +26°C° 0 mm 1 mps 749 mmHg 65%
    21:00 +25°C° 0 mm 1 mps 749 mmHg 67%
    22:00 +25°C° 0 mm 1 mps 749 mmHg 68%
    23:00 +24°C° 0 mm 1 mps 750 mmHg 70%

    21 June, Friday

    Time Temperature Precipitation Wind Pressure Humidity
    00:00 +24°C° 0 mm 1 mps 750 mmHg 74%
    01:00 +23°C° 0 mm 1 mps 750 mmHg 77%
    02:00 +23°C° 0 mm 2 mps 750 mmHg 81%
    03:00 +23°C° 0 mm 1 mps 750 mmHg 82%
    04:00 +23°C° 0 mm 1 mps 750 mmHg 82%
    05:00 +23°C° 0 mm 1 mps 750 mmHg 83%
    06:00 +24°C° 0 mm 2 mps 750 mmHg 78%
    07:00 +26°C° 0 mm 2 mps 750 mmHg 73%
    08:00 +28°C° 0 mm 3 mps 750 mmHg 67%
    09:00 +29°C° 0.3 mm 3 mps 750 mmHg 62%
    10:00 +30°C° 0.3 mm 3 mps 750 mmHg 57%
    11:00 +31°C° 0.3 mm 3 mps 750 mmHg 52%
    12:00 +31°C° 0 mm 3 mps 750 mmHg 51%
    13:00 +33°C° 0 mm 3 mps 750 mmHg 50%
    14:00 +33°C° 0 mm 3 mps 750 mmHg 49%
    15:00 +33°C° 0 mm 3 mps 750 mmHg 50%
    16:00 +33°C° 0 mm 3 mps 750 mmHg 51%
    17:00 +31°C° 0 mm 3 mps 749 mmHg 52%
    18:00 +30°C° 0 mm 3 mps 749 mmHg 58%
    19:00 +28°C° 0 mm 2 mps 750 mmHg 64%
    20:00 +27°C° 0 mm 2 mps 750 mmHg 70%
    21:00 +26°C° 0.1 mm 2 mps 750 mmHg 71%
    22:00 +25°C° 0.1 mm 2 mps 750 mmHg 72%
    23:00 +25°C° 0.1 mm 1 mps 750 mmHg 73%

    22 June, Saturday

    Time Temperature Precipitation Wind Pressure Humidity
    00:00 +24°C° 0 mm 2 mps 750 mmHg 73%
    01:00 +24°C° 0 mm 2 mps 750 mmHg 74%
    02:00 +24°C° 0 mm 2 mps 750 mmHg 74%
    03:00 +23°C° 0 mm 2 mps 750 mmHg 75%
    04:00 +23°C° 0 mm 2 mps 750 mmHg 76%
    05:00 +23°C° 0 mm 2 mps 750 mmHg 77%
    06:00 +25°C° 0 mm 2 mps 750 mmHg 72%
    07:00 +27°C° 0 mm 2 mps 750 mmHg 66%
    08:00 +28°C° 0 mm 3 mps 751 mmHg 61%
    09:00 +30°C° 0 mm 3 mps 751 mmHg 57%
    10:00 +31°C° 0 mm 3 mps 751 mmHg 53%
    11:00 +33°C° 0 mm 3 mps 751 mmHg 48%
    12:00 +33°C° 0 mm 3 mps 751 mmHg 48%
    13:00 +33°C° 0 mm 3 mps 750 mmHg 48%
    14:00 +33°C° 0 mm 3 mps 750 mmHg 48%
    15:00 +34°C° 0 mm 3 mps 750 mmHg 47%
    16:00 +34°C° 0 mm 3 mps 750 mmHg 47%
    17:00 +34°C° 0 mm 3 mps 750 mmHg 47%
    18:00 +31°C° 0.1 mm 3 mps 750 mmHg 55%
    19:00 +29°C° 0.1 mm 4 mps 750 mmHg 62%
    20:00 +27°C° 0.1 mm 4 mps 750 mmHg 70%
    21:00 +25°C° 2.4 mm 3 mps 751 mmHg 77%
    22:00 +22°C° 2.4 mm 3 mps 751 mmHg 83%
    23:00 +20°C° 2.4 mm 2 mps 751 mmHg 89%

    23 June, Sunday

    Time Temperature Precipitation Wind Pressure Humidity
    00:00 +21°C° 0.7 mm 2 mps 751 mmHg 88%
    01:00 +21°C° 0.7 mm 2 mps 751 mmHg 87%
    02:00 +21°C° 0.7 mm 2 mps 751 mmHg 85%
    03:00 +21°C° 0.5 mm 2 mps 751 mmHg 87%
    04:00 +22°C° 0.5 mm 1 mps 751 mmHg 89%
    05:00 +19°C° 0.5 mm 0 mps 751 mmHg 90%
    06:00 +22°C° 0.8 mm 1 mps 751 mmHg 87%
    07:00 +23°C° 0.8 mm 1 mps 751 mmHg 83%
    08:00 +24°C° 0.8 mm 1 mps 751 mmHg 79%
    09:00 +26°C° 0 mm 1 mps 751 mmHg 74%
    10:00 +27°C° 0 mm 1 mps 751 mmHg 70%
    11:00 +28°C° 0 mm 2 mps 751 mmHg 65%
    12:00 +29°C° 0.1 mm 2 mps 751 mmHg 61%
    13:00 +30°C° 0.1 mm 2 mps 751 mmHg 57%
    14:00 +31°C° 0.1 mm 2 mps 751 mmHg 54%
    15:00 +31°C° 0.1 mm 2 mps 751 mmHg 53%
    16:00 +31°C° 0.1 mm 2 mps 750 mmHg 53%
    17:00 +31°C° 0.1 mm 2 mps 750 mmHg 53%
    18:00 +29°C° 0.2 mm 2 mps 750 mmHg 60%
    19:00 +28°C° 0.2 mm 2 mps 750 mmHg 67%
    20:00 +26°C° 0.2 mm 2 mps 750 mmHg 74%
    21:00 +25°C° 0.4 mm 2 mps 751 mmHg 77%
    22:00 +24°C° 0.4 mm 2 mps 751 mmHg 80%
    23:00 +24°C° 0.4 mm 2 mps 751 mmHg 82%
    Show more